FHV2 KATL-KPIT

Flight info

Callsign FHV2
Flight time 1h 23m
Altitude 35000
Route PADGT2 SMTTH Q67 HNN FEWGA7
Aircraft B739/M-SDE2E3FGHIRWXY/LB1

Departure

Time 2026-05-05 19:23
Airport Hartsfield Jackson Atlanta International Airport (KATL)

Arrival

Time 2026-05-05 20:46
Airport Pittsburgh International Airport (KPIT)
Time Latitude Longitude Altitude Speed Heading
2026-05-05 19:11 33.63835 -84.43644 1034 ft 0 kts 89°
2026-05-05 19:13 33.63835 -84.43658 1035 ft 3 kts 84°
2026-05-05 19:13 33.63831 -84.43681 1035 ft 3 kts 70°
2026-05-05 19:14 33.63823 -84.43701 1035 ft 3 kts 51°
2026-05-05 19:14 33.63809 -84.43717 1035 ft 3 kts 24°
2026-05-05 19:14 33.63793 -84.43722 1035 ft 2 kts
2026-05-05 19:14 33.63790 -84.43723 1035 ft 0 kts
2026-05-05 19:17 33.63792 -84.43723 1035 ft 2 kts
2026-05-05 19:17 33.63873 -84.43723 1035 ft 20 kts
2026-05-05 19:17 33.64051 -84.43723 1035 ft 29 kts
2026-05-05 19:18 33.64249 -84.43723 1035 ft 27 kts
2026-05-05 19:18 33.64426 -84.43722 1035 ft 25 kts
2026-05-05 19:18 33.64542 -84.43626 1035 ft 23 kts 88°
2026-05-05 19:18 33.64542 -84.43436 1035 ft 23 kts 90°
2026-05-05 19:19 33.64542 -84.43228 1035 ft 28 kts 90°
2026-05-05 19:19 33.64542 -84.42970 1035 ft 34 kts 90°
2026-05-05 19:19 33.64541 -84.42671 1034 ft 37 kts 90°
2026-05-05 19:19 33.64537 -84.42369 1034 ft 35 kts 91°
2026-05-05 19:20 33.64541 -84.42086 1034 ft 33 kts 89°
2026-05-05 19:20 33.64543 -84.41822 1035 ft 30 kts 90°
2026-05-05 19:20 33.64543 -84.41577 1035 ft 28 kts 90°
2026-05-05 19:20 33.64543 -84.41347 1035 ft 27 kts 90°
2026-05-05 19:21 33.64544 -84.41111 1035 ft 30 kts 90°
2026-05-05 19:21 33.64545 -84.40860 1034 ft 29 kts 84°
2026-05-05 19:21 33.64570 -84.40635 1034 ft 21 kts 89°
2026-05-05 19:21 33.64639 -84.40577 1032 ft 15 kts 348°
2026-05-05 19:22 33.64679 -84.40703 1032 ft 24 kts 270°
2026-05-05 19:22 33.64679 -84.41198 1035 ft 98 kts 270°
2026-05-05 19:22 33.64683 -84.42287 1035 ft 159 kts 272°
2026-05-05 19:22 33.64741 -84.43696 1517 ft 169 kts 269°
2026-05-05 19:23 33.64772 -84.45055 2463 ft 156 kts 264°
2026-05-05 19:23 33.64797 -84.46395 3182 ft 170 kts 273°
2026-05-05 19:23 33.65266 -84.47876 3564 ft 209 kts 291°
2026-05-05 19:23 33.65939 -84.49579 3761 ft 243 kts 291°
2026-05-05 19:24 33.66679 -84.51458 4421 ft 249 kts 291°
2026-05-05 19:24 33.67432 -84.53384 4889 ft 270 kts 291°
2026-05-05 19:24 33.68254 -84.55476 5706 ft 274 kts 294°
2026-05-05 19:24 33.69478 -84.57223 6658 ft 284 kts 320°
2026-05-05 19:25 33.71313 -84.58122 7661 ft 288 kts 346°
2026-05-05 19:25 33.73333 -84.58272 8618 ft 293 kts 358°
2026-05-05 19:25 33.75386 -84.58206 9554 ft 297 kts 357°
2026-05-05 19:25 33.77459 -84.58147 10512 ft 298 kts 356°
2026-05-05 19:26 33.79548 -84.58105 11427 ft 302 kts 356°
2026-05-05 19:26 33.81676 -84.57947 12303 ft 313 kts
2026-05-05 19:26 33.83880 -84.57272 12643 ft 342 kts 13°
2026-05-05 19:26 33.86211 -84.56400 12884 ft 367 kts 14°
2026-05-05 19:27 33.88705 -84.55425 13573 ft 376 kts 14°
2026-05-05 19:27 33.91178 -84.54460 14391 ft 380 kts 14°
2026-05-05 19:27 33.93701 -84.53489 15287 ft 381 kts 13°
2026-05-05 19:27 33.96242 -84.52526 16207 ft 383 kts 12°
2026-05-05 19:28 33.98796 -84.51571 17077 ft 386 kts 12°
2026-05-05 19:28 34.01376 -84.50614 17935 ft 390 kts 11°
2026-05-05 19:28 34.03983 -84.49652 18709 ft 393 kts 11°
2026-05-05 19:28 34.06608 -84.48683 19393 ft 396 kts 11°
2026-05-05 19:29 34.09260 -84.47704 20035 ft 402 kts 11°
2026-05-05 19:29 34.11947 -84.46710 20732 ft 405 kts 11°
2026-05-05 19:29 34.14655 -84.45705 21423 ft 409 kts 11°
2026-05-05 19:29 34.17384 -84.44693 22115 ft 412 kts 11°
2026-05-05 19:30 34.20133 -84.43672 22725 ft 417 kts 11°
2026-05-05 19:30 34.22885 -84.42650 23354 ft 420 kts 11°
2026-05-05 19:30 34.25692 -84.41607 23945 ft 424 kts 11°
2026-05-05 19:30 34.28516 -84.40557 24519 ft 426 kts 11°
2026-05-05 19:31 34.31373 -84.39584 25075 ft 425 kts
2026-05-05 19:31 34.34267 -84.38829 25626 ft 426 kts
2026-05-05 19:31 34.37182 -84.38166 26174 ft 428 kts
2026-05-05 19:31 34.40118 -84.37520 26702 ft 431 kts
2026-05-05 19:32 34.43079 -84.36857 27203 ft 434 kts
2026-05-05 19:32 34.46052 -84.36172 27691 ft 437 kts
2026-05-05 19:32 34.49051 -84.35465 28166 ft 440 kts
2026-05-05 19:32 34.52076 -84.34740 28624 ft 445 kts
2026-05-05 19:33 34.55119 -84.34005 29075 ft 448 kts
2026-05-05 19:33 34.58189 -84.33261 29458 ft 452 kts
2026-05-05 19:33 34.61284 -84.32511 29901 ft 455 kts
2026-05-05 19:33 34.64388 -84.31756 30472 ft 454 kts
2026-05-05 19:34 34.67463 -84.31004 31220 ft 446 kts
2026-05-05 19:34 34.70434 -84.30278 32124 ft 436 kts
2026-05-05 19:34 34.73366 -84.29562 33073 ft 425 kts
2026-05-05 19:35 34.79095 -84.28174 34388 ft 416 kts
2026-05-05 19:35 34.81935 -84.27484 34815 ft 416 kts
2026-05-05 19:35 34.84781 -84.26795 35029 ft 420 kts
2026-05-05 19:36 34.90603 -84.25389 35053 ft 432 kts
2026-05-05 19:36 34.96567 -84.23936 35051 ft 440 kts
2026-05-05 19:37 35.02576 -84.22459 35040 ft 441 kts
2026-05-05 19:37 35.08592 -84.20979 35028 ft 441 kts
2026-05-05 19:38 35.14609 -84.19498 35023 ft 441 kts
2026-05-05 19:38 35.20626 -84.18017 35017 ft 441 kts
2026-05-05 19:39 35.26603 -84.16545 35032 ft 441 kts
2026-05-05 19:39 35.32635 -84.15059 35029 ft 442 kts
2026-05-05 19:40 35.38664 -84.13574 34995 ft 442 kts
2026-05-05 19:40 35.44692 -84.12084 35002 ft 442 kts
2026-05-05 19:41 35.50720 -84.10589 34996 ft 442 kts
2026-05-05 19:41 35.56749 -84.09095 34995 ft 441 kts
2026-05-05 19:42 35.62777 -84.07593 34997 ft 442 kts
2026-05-05 19:42 35.68770 -84.06100 34992 ft 442 kts
2026-05-05 19:43 35.74807 -84.04596 34992 ft 442 kts
2026-05-05 19:43 35.80840 -84.03092 34996 ft 442 kts
2026-05-05 19:44 35.86878 -84.01583 34993 ft 442 kts
2026-05-05 19:44 35.92862 -83.99523 34974 ft 464 kts 17°
2026-05-05 19:45 35.98519 -83.95542 34987 ft 470 kts 20°
2026-05-05 19:45 36.04142 -83.91373 34976 ft 471 kts 20°
2026-05-05 19:46 36.09781 -83.87269 34986 ft 470 kts 20°
2026-05-05 19:46 36.15437 -83.83204 34976 ft 469 kts 19°
2026-05-05 19:47 36.21053 -83.79186 34981 ft 469 kts 19°
2026-05-05 19:47 36.26705 -83.75133 34990 ft 468 kts 19°
2026-05-05 19:48 36.32340 -83.71082 34980 ft 469 kts 19°
2026-05-05 19:48 36.37969 -83.67024 34979 ft 468 kts 19°
2026-05-05 19:49 36.43609 -83.62955 34976 ft 468 kts 19°
2026-05-05 19:49 36.49207 -83.58911 34974 ft 469 kts 19°
2026-05-05 19:50 36.54847 -83.54827 34973 ft 468 kts 19°
2026-05-05 19:50 36.60481 -83.50741 34969 ft 468 kts 19°
2026-05-05 19:51 36.66107 -83.46653 34969 ft 468 kts 20°
2026-05-05 19:51 36.71718 -83.42567 34964 ft 467 kts 20°
2026-05-05 19:52 36.77314 -83.38490 34978 ft 466 kts 20°
2026-05-05 19:52 36.82895 -83.34410 34977 ft 463 kts 20°
2026-05-05 19:53 36.88485 -83.30314 34973 ft 467 kts 20°
2026-05-05 19:53 36.94066 -83.26213 34969 ft 469 kts 20°
2026-05-05 19:54 36.99701 -83.22067 34964 ft 470 kts 20°
2026-05-05 19:54 37.05353 -83.17892 34974 ft 471 kts 20°
2026-05-05 19:55 37.10996 -83.13708 34965 ft 471 kts 20°
2026-05-05 19:55 37.15687 -83.10226 34973 ft 471 kts 20°
2026-05-05 19:56 37.21335 -83.06028 34985 ft 471 kts 20°
2026-05-05 19:56 37.26988 -83.01873 34982 ft 469 kts 18°
2026-05-05 19:57 37.32747 -82.98091 34974 ft 467 kts 16°
2026-05-05 19:57 37.38543 -82.94372 34957 ft 468 kts 17°
2026-05-05 19:58 37.44321 -82.90594 34963 ft 468 kts 17°
2026-05-05 19:58 37.50070 -82.86795 34965 ft 469 kts 17°
2026-05-05 19:59 37.55845 -82.82984 34968 ft 468 kts 17°
2026-05-05 19:59 37.61633 -82.79160 34972 ft 469 kts 17°
2026-05-05 20:00 37.67408 -82.75346 34982 ft 469 kts 17°
2026-05-05 20:00 37.73186 -82.71519 34967 ft 469 kts 17°
2026-05-05 20:01 37.78967 -82.67682 34981 ft 469 kts 17°
2026-05-05 20:01 37.84713 -82.63858 34966 ft 469 kts 17°
2026-05-05 20:02 37.90487 -82.60018 34968 ft 469 kts 17°
2026-05-05 20:02 37.96261 -82.56167 34950 ft 469 kts 17°
2026-05-05 20:03 38.02036 -82.52306 34948 ft 469 kts 17°
2026-05-05 20:03 38.07815 -82.48436 34936 ft 470 kts 17°
2026-05-05 20:04 38.13608 -82.44553 34933 ft 472 kts 17°
2026-05-05 20:04 38.19422 -82.40639 34917 ft 473 kts 18°
2026-05-05 20:05 38.25241 -82.36719 34951 ft 473 kts 18°
2026-05-05 20:05 38.31027 -82.32803 34920 ft 473 kts 18°
2026-05-05 20:06 38.36855 -82.28862 34913 ft 475 kts 18°
2026-05-05 20:06 38.42699 -82.24906 34923 ft 476 kts 18°
2026-05-05 20:07 38.48569 -82.20916 34915 ft 477 kts 18°
2026-05-05 20:07 38.54440 -82.16923 34587 ft 479 kts 18°
2026-05-05 20:07 38.57374 -82.14924 34348 ft 476 kts 18°
2026-05-05 20:08 38.60297 -82.12936 34121 ft 477 kts 18°
2026-05-05 20:08 38.63240 -82.10934 33894 ft 481 kts 19°
2026-05-05 20:08 38.66205 -82.08906 33630 ft 484 kts 19°
2026-05-05 20:08 38.69183 -82.06864 33367 ft 487 kts 19°
2026-05-05 20:09 38.72183 -82.04808 33110 ft 489 kts 19°
2026-05-05 20:09 38.75191 -82.02746 32853 ft 491 kts 20°
2026-05-05 20:09 38.78127 -82.00437 32586 ft 499 kts 26°
2026-05-05 20:09 38.80965 -81.97847 32333 ft 502 kts 29°
2026-05-05 20:10 38.83750 -81.95132 32082 ft 503 kts 30°
2026-05-05 20:10 38.86523 -81.92384 31834 ft 503 kts 30°
2026-05-05 20:10 38.89303 -81.89649 31580 ft 503 kts 30°
2026-05-05 20:10 38.92062 -81.86981 31343 ft 502 kts 30°
2026-05-05 20:11 38.94869 -81.84301 31100 ft 502 kts 29°
2026-05-05 20:11 38.97678 -81.81643 30857 ft 502 kts 30°
2026-05-05 20:11 39.00495 -81.78987 30610 ft 502 kts 30°
2026-05-05 20:11 39.03316 -81.76330 30372 ft 502 kts 30°
2026-05-05 20:12 39.06128 -81.73678 30135 ft 502 kts 30°
2026-05-05 20:12 39.08947 -81.71014 29890 ft 502 kts 31°
2026-05-05 20:12 39.11758 -81.68353 29618 ft 501 kts 31°
2026-05-05 20:12 39.14567 -81.65689 29347 ft 500 kts 31°
2026-05-05 20:13 39.17355 -81.63034 29058 ft 497 kts 31°
2026-05-05 20:13 39.20131 -81.60392 28792 ft 495 kts 31°
2026-05-05 20:13 39.22898 -81.57765 28528 ft 493 kts 32°
2026-05-05 20:13 39.25632 -81.55115 28248 ft 490 kts 32°
2026-05-05 20:14 39.28359 -81.52505 27991 ft 487 kts 31°
2026-05-05 20:14 39.31088 -81.49919 27735 ft 486 kts 31°
2026-05-05 20:14 39.33773 -81.47370 27485 ft 483 kts 32°
2026-05-05 20:14 39.36473 -81.44800 27217 ft 482 kts 32°
2026-05-05 20:15 39.39160 -81.42229 26960 ft 480 kts 32°
2026-05-05 20:15 39.41843 -81.39659 26713 ft 480 kts 32°
2026-05-05 20:15 39.44532 -81.37092 26462 ft 480 kts 33°
2026-05-05 20:15 39.47201 -81.34525 26215 ft 477 kts 33°
2026-05-05 20:16 39.49866 -81.31980 25965 ft 476 kts 33°
2026-05-05 20:16 39.52524 -81.29423 25716 ft 476 kts 33°
2026-05-05 20:16 39.55181 -81.26863 25475 ft 475 kts 34°
2026-05-05 20:16 39.57836 -81.24305 25198 ft 474 kts 34°
2026-05-05 20:17 39.60478 -81.21763 24382 ft 471 kts 34°
2026-05-05 20:17 39.63090 -81.19245 23623 ft 466 kts 35°
2026-05-05 20:17 39.65677 -81.16746 22739 ft 462 kts 35°
2026-05-05 20:17 39.68245 -81.14265 21913 ft 458 kts 35°
2026-05-05 20:18 39.70786 -81.11808 21141 ft 452 kts 35°
2026-05-05 20:18 39.73293 -81.09381 20382 ft 447 kts 35°
2026-05-05 20:18 39.75775 -81.06976 19647 ft 443 kts 34°
2026-05-05 20:18 39.78230 -81.04594 18929 ft 438 kts 34°
2026-05-05 20:19 39.80661 -81.02234 18183 ft 435 kts 34°
2026-05-05 20:19 39.83071 -80.99893 17379 ft 431 kts 34°
2026-05-05 20:19 39.85461 -80.97570 16628 ft 426 kts 34°
2026-05-05 20:19 39.87825 -80.95270 15905 ft 422 kts 34°
2026-05-05 20:20 39.90160 -80.92995 15216 ft 417 kts 34°
2026-05-05 20:20 39.92474 -80.90741 14543 ft 414 kts 34°
2026-05-05 20:20 39.94769 -80.88505 13858 ft 411 kts 34°
2026-05-05 20:20 39.97050 -80.86277 13131 ft 407 kts 34°
2026-05-05 20:21 39.99305 -80.84090 12384 ft 398 kts 34°
2026-05-05 20:21 40.01477 -80.81956 11728 ft 383 kts 35°
2026-05-05 20:21 40.03480 -80.79741 11100 ft 373 kts 41°
2026-05-05 20:21 40.05307 -80.77400 10505 ft 362 kts 44°
2026-05-05 20:22 40.07026 -80.75126 10373 ft 341 kts 44°
2026-05-05 20:22 40.08662 -80.72996 10204 ft 324 kts 43°
2026-05-05 20:22 40.10257 -80.70963 10085 ft 317 kts 43°
2026-05-05 20:22 40.11826 -80.68982 9999 ft 318 kts 42°
2026-05-05 20:23 40.13437 -80.66936 9900 ft 326 kts 43°
2026-05-05 20:23 40.15033 -80.64810 9867 ft 327 kts 44°
2026-05-05 20:23 40.16611 -80.62680 9880 ft 325 kts 45°
2026-05-05 20:23 40.18175 -80.60566 9873 ft 321 kts 44°
2026-05-05 20:24 40.19731 -80.58471 9876 ft 322 kts 44°
2026-05-05 20:24 40.21304 -80.56365 9876 ft 324 kts 44°
2026-05-05 20:24 40.22861 -80.54282 9879 ft 324 kts 44°
2026-05-05 20:24 40.24436 -80.52174 9875 ft 323 kts 44°
2026-05-05 20:25 40.26006 -80.50063 9876 ft 324 kts 45°
2026-05-05 20:25 40.27342 -80.47677 9869 ft 325 kts 61°
2026-05-05 20:25 40.28373 -80.45069 9786 ft 319 kts 64°
2026-05-05 20:25 40.29351 -80.42493 9406 ft 314 kts 64°
2026-05-05 20:26 40.30332 -80.39934 8817 ft 316 kts 64°
2026-05-05 20:26 40.31323 -80.37372 8331 ft 315 kts 64°
2026-05-05 20:26 40.32323 -80.34835 7768 ft 314 kts 64°
2026-05-05 20:26 40.33325 -80.32297 7340 ft 311 kts 64°
2026-05-05 20:27 40.34312 -80.29798 6936 ft 308 kts 64°
2026-05-05 20:27 40.35303 -80.27283 6776 ft 310 kts 64°
2026-05-05 20:27 40.36281 -80.24789 6514 ft 304 kts 64°
2026-05-05 20:27 40.37244 -80.22329 6091 ft 302 kts 65°
2026-05-05 20:28 40.38210 -80.19879 5601 ft 303 kts 64°
2026-05-05 20:28 40.39177 -80.17434 5135 ft 301 kts 64°
2026-05-05 20:28 40.39931 -80.14920 4869 ft 293 kts 83°
2026-05-05 20:28 40.39992 -80.12273 4643 ft 288 kts 96°
2026-05-05 20:29 40.39899 -80.09663 4164 ft 288 kts 97°
2026-05-05 20:29 40.39803 -80.07055 3945 ft 285 kts 96°
2026-05-05 20:29 40.39721 -80.04506 3889 ft 280 kts 96°
2026-05-05 20:29 40.39651 -80.02026 3848 ft 265 kts 96°
2026-05-05 20:30 40.39572 -79.99677 3827 ft 250 kts 98°
2026-05-05 20:30 40.39539 -79.97434 3834 ft 248 kts 79°
2026-05-05 20:30 40.40380 -79.95493 3867 ft 249 kts 37°
2026-05-05 20:30 40.41910 -79.94579 3888 ft 241 kts
2026-05-05 20:31 40.43574 -79.94337 3878 ft 238 kts
2026-05-05 20:31 40.45220 -79.94110 3870 ft 237 kts
2026-05-05 20:31 40.46788 -79.94374 3845 ft 218 kts 325°
2026-05-05 20:31 40.47711 -79.95693 3846 ft 184 kts 281°
2026-05-05 20:32 40.47882 -79.97280 3860 ft 175 kts 270°
2026-05-05 20:32 40.47984 -79.98855 3861 ft 169 kts 268°
2026-05-05 20:32 40.48046 -80.00417 3863 ft 172 kts 267°
2026-05-05 20:32 40.48088 -80.01961 3835 ft 169 kts 267°
2026-05-05 20:33 40.48127 -80.03464 3723 ft 161 kts 266°
2026-05-05 20:33 40.48162 -80.04922 3527 ft 158 kts 267°
2026-05-05 20:33 40.48196 -80.06376 3310 ft 161 kts 267°
2026-05-05 20:33 40.48231 -80.07871 3105 ft 165 kts 267°
2026-05-05 20:34 40.48269 -80.09331 2898 ft 152 kts 267°
2026-05-05 20:34 40.48304 -80.10652 2723 ft 134 kts 269°
2026-05-05 20:34 40.48331 -80.11814 2531 ft 121 kts 268°
2026-05-05 20:34 40.48358 -80.12919 2347 ft 120 kts 268°
2026-05-05 20:35 40.48386 -80.14001 2218 ft 117 kts 266°
2026-05-05 20:35 40.48407 -80.15067 2081 ft 114 kts 266°
2026-05-05 20:35 40.48459 -80.16123 1893 ft 114 kts 267°
2026-05-05 20:35 40.48474 -80.17196 1768 ft 130 kts 264°
2026-05-05 20:36 40.48478 -80.18379 1515 ft 129 kts 270°
2026-05-05 20:36 40.48522 -80.19668 1453 ft 144 kts 272°
2026-05-05 20:36 40.48564 -80.20921 1348 ft 144 kts 270°
2026-05-05 20:36 40.48589 -80.22277 2086 ft 150 kts 268°
2026-05-05 20:37 40.48610 -80.23746 2898 ft 169 kts 268°
2026-05-05 20:37 40.48604 -80.24867 3242 ft 190 kts 260°
2026-05-05 20:37 40.47623 -80.26701 3796 ft 199 kts 209°
2026-05-05 20:37 40.46260 -80.26851 3831 ft 206 kts 173°
2026-05-05 20:38 40.44850 -80.26324 3831 ft 212 kts 171°
2026-05-05 20:38 40.43515 -80.25497 3720 ft 221 kts 144°
2026-05-05 20:38 40.42783 -80.23699 3339 ft 235 kts 104°
2026-05-05 20:38 40.42795 -80.21519 2941 ft 239 kts 91°
2026-05-05 20:39 40.42761 -80.19383 2882 ft 227 kts 96°
2026-05-05 20:39 40.42699 -80.17387 2823 ft 212 kts 96°
2026-05-05 20:39 40.42633 -80.15485 2848 ft 207 kts 97°
2026-05-05 20:39 40.42575 -80.13588 2860 ft 210 kts 97°
2026-05-05 20:40 40.42505 -80.11649 2886 ft 215 kts 97°
2026-05-05 20:40 40.42441 -80.10005 2854 ft 216 kts 97°
2026-05-05 20:41 40.42415 -80.09323 2845 ft 214 kts 97°
2026-05-05 20:41 40.42473 -80.06790 2839 ft 210 kts 72°
2026-05-05 20:41 40.43258 -80.05204 2853 ft 211 kts 34°
2026-05-05 20:41 40.44487 -80.04139 2864 ft 212 kts 30°
2026-05-05 20:42 40.45365 -80.03563 2831 ft 204 kts
2026-05-05 20:42 40.46652 -80.03815 2869 ft 189 kts 320°
2026-05-05 20:42 40.47382 -80.05139 2874 ft 179 kts 284°
2026-05-05 20:42 40.47847 -80.06663 2853 ft 179 kts 286°
2026-05-05 20:43 40.48127 -80.08218 2874 ft 175 kts 274°
2026-05-05 20:43 40.48266 -80.09788 2782 ft 172 kts 269°
2026-05-05 20:43 40.48319 -80.11315 2594 ft 160 kts 269°
2026-05-05 20:43 40.48353 -80.12695 2418 ft 141 kts 270°
2026-05-05 20:44 40.48384 -80.13918 2215 ft 127 kts 269°
2026-05-05 20:44 40.48410 -80.15012 2077 ft 115 kts 268°
2026-05-05 20:44 40.48447 -80.16042 1881 ft 112 kts 266°
2026-05-05 20:44 40.48467 -80.17061 1759 ft 113 kts 267°
2026-05-05 20:45 40.48515 -80.19308 1433 ft 129 kts 272°
2026-05-05 20:45 40.48550 -80.20490 1300 ft 130 kts 270°
2026-05-05 20:45 40.48584 -80.21678 1140 ft 129 kts 269°
2026-05-05 20:46 40.48608 -80.22702 1142 ft 91 kts 272°
2026-05-05 20:46 40.48624 -80.23346 1134 ft 57 kts 271°
2026-05-05 20:46 40.48690 -80.23792 1136 ft 36 kts 303°
2026-05-05 20:46 40.48824 -80.23993 1144 ft 24 kts 338°
2026-05-05 20:47 40.48985 -80.24001 1149 ft 23 kts
2026-05-05 20:47 40.49141 -80.23997 1148 ft 22 kts
2026-05-05 20:47 40.49209 -80.24068 1150 ft 12 kts 272°
2026-05-05 20:47 40.49209 -80.24133 1149 ft 2 kts 270°
2026-05-05 20:48 40.49220 -80.24157 1149 ft 7 kts 325°
2026-05-05 20:48 40.49252 -80.24169 1149 ft 3 kts 354°
2026-05-05 20:48 40.49262 -80.24170 1149 ft 1 kts 354°
2026-05-05 20:48 40.49263 -80.24170 1149 ft 0 kts 354°